[[{"header":{"parameterUnit":"m.s-1","parameterCategory":1,"la1":30.2991,"la2":30.254,"lo1":-89.0895,"lo2":-89.0444,"dy":0.0017,"dx":0.0017,"nx":28,"ny":28,"refTime":"2023-10-23T21:00:00:Z","depth":0,"parameterNumber":2,"parameterNumberName":"U-component_of_WINDS"},"data":[0,0,0,0,0,0,0,0,0,0,0,0,0,0,0,0,0,0,0,0,0,0,0,0,0,0,0,0,0,0,0,0,0,0,0,0,0,0,0,0,0,0,0,0,0,0,0,0,0,0,0,0,0,0,0,0,0,0,-3.6395,-3.6395,0,-3.6435,-3.6435,-3.6436,-3.6344,-3.6341,-3.6338,-3.6335,-3.6375,-3.6379,-3.6382,0,0,0,0,0,0,0,0,0,0,0,0,0,-3.6241,-3.6244,-3.6395,-3.6395,-3.6396,-3.6435,-3.6435,-3.6436,-3.6344,-3.634,-3.6337,-3.6334,-3.6374,-3.6378,-3.6383,0,0,0,0,0,0,0,0,0,0,0,0,0,-3.6297,-3.6245,-3.6395,-3.6355,-3.6352,-3.6435,-3.6435,-3.6436,-3.6345,-3.634,-3.6336,-3.6332,-3.6372,-3.6378,-3.6383,-3.6507,0,0,-3.6401,-3.6403,0,0,0,0,0,0,0,0,-3.6294,-3.6303,-3.636,-3.6358,-3.6354,-3.638,-3.6396,-3.646,-3.6346,-3.6347,-3.6335,-3.633,-3.638,-3.6385,-3.6402,-3.6509,-3.651,-3.6401,-3.6405,-3.6407,-3.6409,0,0,0,0,0,0,0,-3.629,-3.6301,-3.6411,-3.6361,-3.6358,-3.6335,-3.6339,-3.6407,-3.6388,-3.6347,-3.634,-3.6346,-3.6378,-3.6397,-3.6402,-3.6511,-3.6401,-3.6406,-3.641,-3.6412,-3.6724,-3.6729,0,0,0,0,0,0,-3.6291,-3.6298,-3.6409,-3.6412,-3.6313,-3.6342,-3.6345,-3.6376,-3.6387,-3.6384,-3.635,-3.6342,-3.6389,-3.6396,-3.6403,-3.6549,-3.6407,-3.6413,-3.6416,-3.6719,-3.6725,-3.673,0,0,0,0,0,0,-3.6289,-3.6302,-3.6408,-3.6353,-3.6365,-3.6349,-3.6384,-3.6379,-3.6398,-3.6389,-3.6385,-3.6373,-3.6386,-3.6395,-3.6482,-3.6549,-3.6415,-3.642,-3.6714,-3.6721,-3.6728,-3.6842,0,0,0,0,0,0,-3.6284,-3.6302,-3.6348,-3.6355,-3.6368,-3.6486,-3.6389,-3.6383,-3.6408,-3.6398,-3.641,-3.6407,-3.6383,-3.6474,-3.6488,-3.6555,-3.6425,-3.6707,-3.6717,-3.6725,-3.6832,-3.6853,-3.687,0,0,0,0,0,-3.6279,-3.6377,-3.635,-3.6364,-3.6425,-3.649,-3.6497,-3.6467,-3.6414,-3.646,-3.6456,-3.6407,-3.6541,-3.6484,-3.6499,-3.6568,-3.6703,-3.6714,-3.6725,-3.6824,-3.6849,-3.687,0,0,0,0,0,0,-3.6377,-3.6377,-3.6347,-3.6451,-3.6471,-3.6474,-3.6531,-3.6494,-3.6529,-3.6518,-3.648,-3.6484,-3.6579,-3.6582,-3.6519,-3.669,-3.6613,-3.6627,-3.6683,-3.6707,-3.6725,-3.6721,-3.643,0,0,0,0,0,-3.6411,-3.6463,-3.6461,-3.6552,-3.6564,-3.6547,-3.6574,-3.655,-3.6569,-3.6576,-3.6578,-3.6598,-3.6645,-3.6676,-3.6719,-3.6834,-3.6836,-3.6889,-3.6908,-3.6924,-3.6936,-3.6999,-3.7023,-3.6766,-3.6766,-3.6766,0,0,-3.648,-3.6487,-3.6522,-3.6572,-3.6585,-3.6641,-3.6554,-3.6616,-3.6657,-3.6586,-3.6668,-3.6671,-3.6691,-3.6794,-3.6839,-3.68,-3.7008,-3.6938,-3.695,-3.6954,-3.7013,-3.7037,-3.7059,-3.6774,-3.6772,-3.6771,0,0,-3.6635,-3.6646,-3.6724,-3.674,-3.6761,-3.6749,-3.6769,-3.6779,-3.6778,-3.686,-3.6809,-3.6858,-3.6939,-3.6956,-3.6976,-3.7144,-3.7101,-3.7159,-3.7256,-3.7318,-3.7338,-3.7356,-3.7416,-3.7438,-3.7172,-3.7172,-3.7172,0,-3.6718,-3.68,-3.6769,-3.6835,-3.6859,-3.68,-3.6879,-3.6896,-3.693,-3.6949,-3.6905,-3.7008,-3.7018,-3.7124,-3.7166,-3.7184,-3.7205,-3.7156,-3.7338,-3.7355,-3.7371,-3.7428,-3.7451,-3.7179,-3.7178,-3.7177,-3.7177,0,-3.6902,-3.696,-3.702,-3.7056,-3.7088,-3.7161,-3.7142,-3.7178,-3.7153,-3.7146,-3.7233,-3.7243,-3.7288,-3.7312,-3.7287,-3.7416,-3.7392,-3.7344,-3.7265,-3.7403,-3.7456,-3.7478,-3.7189,-3.7186,-3.7184,-3.7183,0,0,-3.7114,-3.7136,-3.7159,-3.7175,-3.7197,-3.7241,-3.7313,-3.7358,-3.739,-3.7417,-3.7476,-3.7549,-3.7506,-3.7529,-3.7506,-3.7561,-3.7695,-3.7507,-3.7507,-3.7541,-3.7839,-3.7874,-3.7899,-3.7668,-3.7672,-3.7675,-3.7837,0,-3.7267,-3.739,-3.7366,-3.7486,-3.754,-3.7487,-3.755,-3.7571,-3.7569,-3.7615,-3.7612,-3.7664,-3.7603,-3.7617,-3.7669,-3.7667,-3.7754,-3.7656,-3.7723,-3.7726,-3.7717,-3.7927,-3.7963,-3.8115,-3.7858,-3.7861,-3.7864,0,-3.7461,-3.7497,-3.7623,-3.7639,-3.7661,-3.7718,-3.7758,-3.7803,-3.7827,-3.7822,-3.785,-3.7818,-3.7891,-3.7814,-3.7914,-3.7848,-3.7875,-3.788,-3.7885,-3.7888,-3.7801,-3.7935,-3.8162,-3.8185,-3.7896,-3.7893,-3.7891,0,-3.7603,-3.7684,-3.777,-3.7786,-3.7807,-3.7849,-3.7859,-3.7879,-3.7909,-3.7945,-3.7965,-3.8009,-3.8033,-3.8069,-3.8051,-3.7997,-3.8156,-3.8077,-3.8153,-3.8154,-3.8187,-3.8184,-3.8421,-3.8207,-3.8207,-3.8206,-3.8206,0,-3.7775,-3.7854,-3.7834,-3.7887,-3.7975,-3.7949,-3.8037,-3.8042,-3.8061,-3.8114,-3.8072,-3.8124,-3.8098,-3.8148,-3.8135,-3.8221,-3.8232,-3.823,-3.8225,-3.8233,-3.8233,-3.8248,-3.8237,-3.8212,-3.8211,-3.821,-3.8209,0,-3.7947,-3.7937,-3.8027,-3.8042,-3.8048,-3.8112,-3.8124,-3.8175,-3.8171,-3.824,-3.8255,-3.8249,-3.8306,-3.8293,-3.8355,-3.8347,-3.8455,-3.8437,-3.8447,-3.8442,-3.8519,-3.8512,-3.8772,-3.8805,-3.8572,-3.8574,-3.8576,0,-3.8056,-3.8116,-3.8138,-3.8171,-3.8186,-3.824,-3.8271,-3.825,-3.8284,-3.8319,-3.8365,-3.8419,-3.8461,-3.8556,-3.8557,-3.8606,-3.8588,-3.8677,-3.8595,-3.8602,-3.8589,-3.8585,-3.8592,-3.8692,-3.8694,-3.8696,-3.8698,0,-3.8251,-3.8244,-3.829,-3.8337,-3.8376,-3.8411,-3.8442,-3.8472,-3.8453,-3.8494,-3.8553,-3.8586,-3.8651,-3.8706,-3.8752,-3.8764,-3.8729,-3.8725,-3.8745,-3.8752,-3.8755,-3.8755,-3.8489,-3.8718,-3.8716,-3.8714,-3.8713,-3.8713,-3.8394,-3.8446,-3.847,-3.8524,-3.8547,-3.8578,-3.8626,-3.8631,-3.8679,-3.8731,-3.8716,-3.8784,-3.881,-3.8868,-3.8887,-3.894,-3.8907,-3.8936,-3.8943,-3.895,-3.896,-3.8749,-3.8948,-3.8948,-3.8947,-3.8947,-3.8946,0,-3.8586,-3.8601,-3.8651,-3.8697,-3.8741,-3.8707,-3.8741,-3.8779,-3.8839,-3.8867,-3.891,-3.898,-3.9034,-3.9042,-3.9094,-3.9135,-3.9121,-3.9149,-3.9145,-3.9149,-3.8986,-3.8963,-3.9161,-3.916,-3.916,-3.916,-3.916,-3.916,-3.8691,-3.8778,-3.8775,-3.8873,-3.8887,-3.8953,-3.8976,-3.9006,-3.9028,-3.9108,-3.9153,-3.9159,-3.9179,-3.9233,-3.9282,-3.9283,-3.9304,-3.9339,-3.9334,-3.9181,-3.916,-3.9139,-3.9118,-3.9344,-3.9344,-3.9492,-3.9493,-3.9494]},{"header":{"parameterUnit":"m.s-1","parameterCategory":1,"la1":30.2991,"la2":30.254,"lo1":-89.0895,"lo2":-89.0444,"dy":0.0017,"dx":0.0017,"nx":28,"ny":28,"refTime":"2023-10-23T21:00:00:Z","depth":0,"parameterNumber":3,"parameterNumberName":"V-component_of_WINDS"},"data":[0,0,0,0,0,0,0,0,0,0,0,0,0,0,0,0,0,0,0,0,0,0,0,0,0,0,0,0,0,0,0,0,0,0,0,0,0,0,0,0,0,0,0,0,0,0,0,0,0,0,0,0,0,0,0,0,0,0,0.8731,0.8731,0,0.876,0.876,0.8761,0.8727,0.8726,0.8724,0.8723,0.8751,0.8753,0.8755,0,0,0,0,0,0,0,0,0,0,0,0,0,0.8647,0.8649,0.8731,0.8731,0.8732,0.876,0.876,0.8761,0.8727,0.8726,0.8724,0.8723,0.8751,0.8753,0.8755,0,0,0,0,0,0,0,0,0,0,0,0,0,0.8681,0.865,0.8731,0.8718,0.8717,0.876,0.876,0.8761,0.8727,0.8725,0.8724,0.8722,0.875,0.8753,0.8756,0.8812,0,0,0.8765,0.8766,0,0,0,0,0,0,0,0,0.8679,0.8684,0.872,0.8719,0.8718,0.8738,0.8741,0.8778,0.8728,0.8724,0.8723,0.8721,0.8748,0.8751,0.8761,0.8813,0.8814,0.8765,0.8767,0.8768,0.8769,0,0,0,0,0,0,0,0.8677,0.8682,0.8742,0.872,0.8719,0.8712,0.8714,0.8748,0.8746,0.8724,0.8721,0.8725,0.8748,0.8758,0.8761,0.8815,0.8765,0.8767,0.8769,0.877,0.8919,0.8921,0,0,0,0,0,0,0.8676,0.8681,0.8741,0.8743,0.8694,0.8715,0.8718,0.8733,0.8746,0.8746,0.8727,0.8724,0.8754,0.8758,0.8762,0.8831,0.8768,0.8771,0.8772,0.8916,0.8919,0.8921,0,0,0,0,0,0,0.8674,0.8681,0.874,0.8711,0.8718,0.8718,0.8736,0.8735,0.8746,0.8748,0.8748,0.8738,0.8753,0.8758,0.8801,0.8832,0.8772,0.8775,0.8914,0.8917,0.892,0.8968,0,0,0,0,0,0,0.8672,0.8681,0.8701,0.8712,0.872,0.8778,0.8738,0.8737,0.8751,0.8747,0.8758,0.8758,0.8752,0.8797,0.8804,0.8835,0.8777,0.8911,0.8915,0.8919,0.8964,0.8973,0.898,0,0,0,0,0,0.8669,0.8712,0.8703,0.871,0.8746,0.8779,0.8784,0.8776,0.8753,0.8775,0.8777,0.8758,0.8827,0.8801,0.8809,0.8841,0.8909,0.8914,0.8919,0.896,0.8971,0.898,0,0,0,0,0,0,0.8703,0.8713,0.8703,0.8751,0.8765,0.8774,0.88,0.8787,0.8807,0.8802,0.8791,0.8794,0.884,0.8844,0.8815,0.8898,0.8865,0.8871,0.8893,0.8904,0.8912,0.891,0.8779,0,0,0,0,0,0.8717,0.8744,0.8751,0.8793,0.8801,0.88,0.8814,0.8807,0.8821,0.8826,0.8831,0.8845,0.8871,0.8887,0.891,0.8965,0.8968,0.8991,0.8999,0.9006,0.9012,0.9045,0.9056,0.8938,0.8938,0.8938,0,0,0.8744,0.8753,0.877,0.88,0.881,0.8839,0.8804,0.8835,0.8857,0.883,0.8872,0.8877,0.8892,0.8942,0.8964,0.8947,0.9046,0.9012,0.9018,0.902,0.9051,0.9062,0.9072,0.8941,0.894,0.894,0,0,0.881,0.8818,0.8856,0.8868,0.8885,0.8884,0.8894,0.8906,0.8909,0.895,0.8932,0.8958,0.9001,0.9014,0.9026,0.9102,0.9086,0.9109,0.9152,0.9185,0.9194,0.9202,0.9232,0.9242,0.9115,0.9116,0.9116,0,0.8841,0.8885,0.8877,0.8911,0.8926,0.8905,0.8944,0.8956,0.8979,0.899,0.8971,0.9028,0.9036,0.9091,0.911,0.9119,0.9131,0.9108,0.9193,0.9201,0.9209,0.9237,0.9248,0.9118,0.9118,0.9118,0.9118,0,0.8925,0.8955,0.8984,0.9009,0.9027,0.9063,0.9062,0.9082,0.9074,0.9077,0.9122,0.9132,0.9158,0.9171,0.9162,0.9225,0.9215,0.9195,0.9161,0.9223,0.925,0.926,0.9123,0.9122,0.9121,0.912,0,0,0.9009,0.9034,0.9044,0.9057,0.9077,0.91,0.9137,0.9165,0.9183,0.9201,0.9232,0.9272,0.9255,0.9269,0.9262,0.9291,0.9354,0.9268,0.9268,0.9285,0.9427,0.9443,0.9455,0.9344,0.9346,0.9347,0.9427,0,0.9077,0.9142,0.9138,0.9199,0.9229,0.9212,0.9245,0.9261,0.9265,0.9292,0.9296,0.9325,0.9299,0.9308,0.9335,0.934,0.9383,0.9335,0.9375,0.9376,0.9373,0.9469,0.9485,0.9559,0.9437,0.9438,0.944,0,0.9163,0.9187,0.9252,0.9271,0.9283,0.9313,0.934,0.9365,0.9384,0.9386,0.9404,0.9394,0.9433,0.9399,0.9454,0.9422,0.9438,0.9444,0.9447,0.9451,0.9412,0.9477,0.9582,0.9594,0.9455,0.9454,0.9453,0,0.9222,0.927,0.9316,0.9327,0.935,0.9372,0.9382,0.9399,0.9418,0.9442,0.9454,0.9482,0.9497,0.952,0.9519,0.9493,0.9576,0.954,0.9579,0.9579,0.9597,0.9596,0.9708,0.9606,0.9606,0.9605,0.9605,0,0.9298,0.9339,0.9343,0.9372,0.9418,0.9415,0.9461,0.9469,0.9485,0.9516,0.9502,0.9532,0.9528,0.9558,0.9557,0.9605,0.9611,0.9614,0.9614,0.9616,0.9616,0.9627,0.9623,0.9608,0.9608,0.9607,0.9607,0,0.9371,0.9375,0.9425,0.9444,0.945,0.9483,0.95,0.9528,0.9532,0.9572,0.9581,0.9588,0.9623,0.9624,0.9663,0.9663,0.9722,0.9715,0.9716,0.9715,0.9755,0.9752,0.9878,0.9896,0.9781,0.9782,0.9783,0,0.942,0.9451,0.9475,0.9496,0.9508,0.9541,0.9561,0.9559,0.9581,0.9608,0.9633,0.9667,0.9694,0.9751,0.976,0.9791,0.9786,0.9828,0.979,0.9793,0.9789,0.9788,0.9792,0.9835,0.9837,0.9838,0.9838,0,0.9507,0.9509,0.9538,0.957,0.9595,0.9619,0.9642,0.9659,0.9661,0.9686,0.9723,0.9744,0.9787,0.9822,0.9853,0.9864,0.9853,0.9851,0.9862,0.9865,0.9865,0.9868,0.9738,0.9848,0.9847,0.9846,0.9846,0.9845,0.957,0.96,0.9622,0.9657,0.9675,0.9698,0.9726,0.9736,0.9767,0.9802,0.98,0.9841,0.9863,0.9904,0.9919,0.9952,0.9937,0.9952,0.9957,0.9961,0.9966,0.986,0.9957,0.9957,0.9956,0.9956,0.9956,0,0.9659,0.9674,0.9706,0.974,0.9768,0.9757,0.9783,0.9807,0.9844,0.9866,0.9894,0.9939,0.9974,0.9987,1.0021,1.0046,1.0042,1.0055,1.0053,1.0057,0.9976,0.9964,1.0058,1.0058,1.0058,1.0058,1.0058,1.0058,0.9708,0.9758,0.9764,0.9823,0.9838,0.9879,0.9896,0.9918,0.9936,0.9986,1.0016,1.0025,1.0045,1.0081,1.0114,1.0117,1.0131,1.0147,1.0148,1.0072,1.0062,1.0052,1.0041,1.015,1.015,1.0227,1.0228,1.0228]}]]